Location: Be Tobo
(6.6442°N, 10.6239°W)
Time: 01:02:01
(UTC+00:00)

GPS 2-17 Rocket1 - Pass Details

Date: 18 September 2020
Orbit: 571 x 659 km, 20.3° (Epoch: 20 October)

Event Time Altitude Azimuth Distance (km) Brightness Sun altitude
Rises 19:45:25 0° 266° (W) 2,869 8.2 -17.0°
Reaches altitude 10° 19:47:51 10° 273° (W) 1,980 7.0 -17.6°
Maximum altitude 19:52:13 40° 343° (NNW) 934 4.1 -18.6°
Enters shadow 19:54:36 23° 38° (NE) 1,340 4.5 -19.2°
